Whiting Fld NAS, FL

5:37 PM CDT on June 28, 2017 (GMT -0500)
Whiting Field Naval Air Station (North)

Weather History for KNSE - January, 2014

Change the Weather History Date:

Monday, January 13, 2014

  Actual Average Record
Temperature  
Mean Temperature 52 °F -  
Max Temperature 60 °F 59 °F 84 °F (1999)
Min Temperature 43 °F 40 °F 24 °F (2011)
Degree Days  
Heating Degree Days 14    
Growing Degree Days 2 (Base 50)    
Moisture  
Dew Point 52 °F    
Average Humidity 91    
Maximum Humidity 100    
Minimum Humidity 72    
Precipitation  
Precipitation 0.59 in - - ()
Sea Level Pressure  
Sea Level Pressure 29.96 in    
Wind  
Wind Speed 4 mph (SE)    
Max Wind Speed 18 mph    
Max Gust Speed -    
Visibility 6 miles    
Events Rain , Thunderstorm    
Averages and records for this station are not official NWS values.
T = Trace of Precipitation, MM = Missing Value Source: NWS Daily Summary

Daily Weather History Graph

Daily Weather History Graph

Search for Another Location

Airport or City:

Trip Planner

Search our weather history database for the weather conditions in past years. The results will help you decide how hot, cold, wet, or windy it might be!

Date:

Astronomy

Jan. 13, 2014 Rise Set
Actual Time 6:46 AM CST 5:07 PM CST
Civil Twilight 6:20 AM CST 5:33 PM CST
Nautical Twilight 5:50 AM CST 6:03 PM CST
Astronomical Twilight 5:21 AM CST 6:32 PM CST
Moon 3:20 PM CST (1/13) 4:36 AM CST (1/13)
Length of Visible Light 11h 13m
Length of Day
10h 21m
Waxing Gibbous, 95% of the Moon is Illuminated
Jan 13
Waxing Gibbous
Jan 15
Full
Jan 23
Last Quarter
Jan 30
New
Feb 6
First Quarter

Hourly Weather History & Observations

Time (CST) Temp. Windchill Dew Point Humidity Pressure Visibility Wind Dir Wind Speed Gust Speed Precip Events Conditions
12:56 AM 43.0 °F - 39.9 °F 89% 30.11 in 10.0 mi Calm Calm - N/A   Clear
1:56 AM 43.0 °F 40.3 °F 39.9 °F 89% 30.08 in 10.0 mi ENE 4.6 mph - N/A   Clear
2:56 AM 45.0 °F 43.5 °F 39.9 °F 82% 30.06 in 10.0 mi ESE 3.5 mph - N/A   Clear
3:56 AM 45.0 °F 41.8 °F 39.9 °F 82% 30.04 in 10.0 mi ESE 5.8 mph - N/A   Clear
4:56 AM 45.0 °F - 41.0 °F 86% 30.04 in 10.0 mi Calm Calm - N/A   Clear
5:56 AM 43.0 °F 41.3 °F 39.9 °F 89% 30.05 in 10.0 mi ENE 3.5 mph - N/A   Scattered Clouds
6:56 AM 46.0 °F - 42.1 °F 86% 30.05 in 10.0 mi Calm Calm - N/A   Mostly Cloudy
7:56 AM 50.0 °F - 45.0 °F 83% 30.07 in 10.0 mi NE 3.5 mph - N/A   Mostly Cloudy
8:56 AM 54.0 °F - 46.9 °F 77% 30.09 in 10.0 mi East 4.6 mph - N/A   Mostly Cloudy
9:56 AM 57.0 °F - 48.0 °F 72% 30.07 in 10.0 mi East 4.6 mph - N/A   Mostly Cloudy
10:56 AM 57.9 °F - 48.9 °F 72% 30.05 in 10.0 mi SE 6.9 mph - 0.00 in Rain Light Rain
11:47 AM 55.9 °F - 52.0 °F 87% 30.04 in 2.5 mi NW 4.6 mph - 0.03 in Rain Rain
11:54 AM 55.4 °F - 51.8 °F 88% 30.03 in 4.0 mi Variable 3.5 mph - 0.03 in Rain Light Rain
11:56 AM 55.9 °F - 52.0 °F 87% 29.99 in 6.0 mi Calm Calm - 0.03 in Rain Light Rain
12:56 PM 57.0 °F - 55.0 °F 93% 29.90 in 6.0 mi East 6.9 mph - 0.00 in Rain Light Rain
1:56 PM 57.0 °F - 55.9 °F 96% 29.92 in 3.0 mi SE 8.1 mph - 0.04 in Rain Light Rain
2:02 PM 57.0 °F - 55.0 °F 93% 29.95 in 2.5 mi SSE 9.2 mph - 0.03 in Rain , Thunderstorm Thunderstorms and Rain
2:14 PM 57.0 °F - 55.0 °F 93% 29.95 in 1.5 mi SSE 6.9 mph - 0.10 in Rain , Thunderstorm Heavy Thunderstorms and Rain
2:56 PM 55.9 °F - 55.9 °F 100% 29.94 in 2.0 mi SE 4.6 mph - 0.24 in Rain , Thunderstorm Thunderstorms and Rain
3:35 PM 55.9 °F - 54.0 °F 93% 29.94 in 2.5 mi ESE 12.7 mph - 0.13 in Rain Rain
3:56 PM 55.9 °F - 54.0 °F 93% 29.90 in 4.0 mi SE 13.8 mph - 0.15 in Rain Rain
4:41 PM 55.9 °F - 54.0 °F 93% 29.91 in 3.0 mi SE 18.4 mph - 0.10 in Rain Rain
4:56 PM 55.9 °F - 55.0 °F 97% 29.88 in 6.0 mi SE 11.5 mph - 0.10 in Rain Light Rain
5:56 PM 57.0 °F - 55.9 °F 96% 29.87 in 9.0 mi SSE 9.2 mph - 0.00 in Rain Light Rain
6:56 PM 57.0 °F - 55.9 °F 96% 29.88 in 10.0 mi SSE 9.2 mph - 0.00 in   Overcast
7:56 PM 57.9 °F - 57.0 °F 97% 29.89 in 10.0 mi SSE 6.9 mph - N/A   Overcast
8:56 PM 59.0 °F - 57.9 °F 96% 29.88 in 3.0 mi SSE 4.6 mph - 0.00 in Rain Light Rain
9:03 PM 59.0 °F - 59.0 °F 100% 29.93 in 3.0 mi South 4.6 mph - 0.00 in Rain Light Rain
9:56 PM 59.0 °F - 59.0 °F 100% 29.88 in 3.0 mi Calm Calm - 0.02 in Rain Light Rain
10:56 PM 59.0 °F - 59.0 °F 100% 29.86 in 2.0 mi Calm Calm - 0.00 in Rain Light Rain
11:04 PM 60.1 °F - 60.1 °F 100% 29.90 in 1.5 mi Calm Calm - 0.00 in Rain Light Rain
11:16 PM 60.1 °F - 60.1 °F 100% 29.89 in 1.0 mi Calm Calm - 0.01 in Rain Light Rain
11:23 PM 59.0 °F - 59.0 °F 100% 29.89 in 1.0 mi Calm Calm - 0.01 in   Overcast
11:30 PM 59.0 °F - 59.0 °F 100% 29.88 in 0.8 mi Calm Calm - 0.01 in Rain Light Rain
11:56 PM 60.1 °F - 59.0 °F 96% 29.83 in 0.8 mi WNW 3.5 mph - 0.01 in   Overcast